Location: Asheville, NC
(35.6000°N, 82.5500°W)
Time: 22:58:35

CUTE-I - Pass Details

Date: 16 March 2018
Orbit: 812 x 824 km, 98.7° (Epoch: 20 March)

Event Time Altitude Azimuth Distance (km) Brightness Sun altitude
Rises 07:04:03 0° 25° (NNE) 3,363 ? -8.0°
Reaches altitude 10° 07:06:42 10° 36° (NE) 2,425 ? -7.5°
Maximum altitude 07:11:21 30° 97° (E) 1,447 ? -6.6°
Drops below altitude 10° 07:15:58 10° 157° (SSE) 2,406 ? -5.6°
Sets 07:18:35 0° 168° (SSE) 3,332 ? -5.1°
